Location: Copenhagen (historical)
(34.9842°N, 85.7250°W)
Time: 19:34:57
(UTC+00:00)

ISS - Visible Passes

Search period start: 10 November 2025 00:00
Search period end: 20 November 2025 00:00
Orbit: 415 x 421 km, 51.6° (Epoch: 09 November)

Date Brightness Start Highest point End Pass type
(mag) Time Alt. Az. Time Alt. Az. Time Alt. Az.
10 Nov -0.9 00:56:03 10° SW 00:56:46 15° SW 00:56:46 15° SW visible
11 Nov -3.4 00:08:18 10° SSW 00:11:21 48° SSE 00:11:21 48° SSE visible
11 Nov -2.5 23:20:54 10° S 23:23:43 25° SE 23:25:49 14° E visible
12 Nov -0.9 00:57:32 10° W 00:58:47 18° WNW 00:58:47 18° WNW visible
13 Nov -2.9 00:09:10 10° WSW 00:12:24 45° NW 00:13:08 37° N visible
13 Nov -3.8 23:21:05 10° SW 23:24:25 86° NW 23:27:23 13° NE visible
14 Nov -0.5 01:00:08 10° NW 01:00:20 11° NW 01:00:20 11° NW visible
15 Nov -1.5 00:11:04 10° WNW 00:13:26 18° NNW 00:14:29 16° N visible
15 Nov -2.1 23:22:22 10° W 23:25:17 27° NW 23:28:14 10° NNE visible
17 Nov -1.1 23:24:46 10° NW 23:26:22 13° NNW 23:27:56 10° N visible
